Stündliche Wetter Dabki

Heute, 31 Oktober, Samstag

Zeit Temperatur Niederschläge Wind Luftdruck Luftfeuchtigkeit
00:00 +9°C° 0 mm 1 m/S 754 mmHg 95%
01:00 +9°C° 0 mm 1 m/S 755 mmHg 94%
02:00 +8°C° 0 mm 1 m/S 755 mmHg 94%
03:00 +8°C° 0 mm 1 m/S 755 mmHg 94%
04:00 +7°C° 0 mm 2 m/S 756 mmHg 94%
05:00 +7°C° 0 mm 2 m/S 756 mmHg 94%
06:00 +7°C° 0 mm 1 m/S 756 mmHg 94%
07:00 +7°C° 0 mm 1 m/S 757 mmHg 94%
08:00 +8°C° 0 mm 1 m/S 757 mmHg 89%
09:00 +8°C° 0 mm 2 m/S 758 mmHg 84%
10:00 +9°C° 0 mm 2 m/S 758 mmHg 80%
11:00 +10°C° 0 mm 2 m/S 758 mmHg 75%
12:00 +12°C° 0 mm 2 m/S 758 mmHg 71%
13:00 +13°C° 0 mm 2 m/S 758 mmHg 67%
14:00 +12°C° 0 mm 2 m/S 758 mmHg 71%
15:00 +10°C° 0 mm 2 m/S 758 mmHg 74%
16:00 +10°C° 0 mm 2 m/S 757 mmHg 78%
17:00 +9°C° 0 mm 2 m/S 758 mmHg 81%
18:00 +8°C° 0 mm 3 m/S 758 mmHg 84%
19:00 +8°C° 0 mm 3 m/S 758 mmHg 87%
20:00 +7°C° 0 mm 3 m/S 757 mmHg 87%
21:00 +7°C° 0 mm 3 m/S 757 mmHg 87%
22:00 +7°C° 0 mm 3 m/S 757 mmHg 87%
23:00 +7°C° 0 mm 3 m/S 757 mmHg 87%

Morgen, 1 November, Sonntag

Zeit Temperatur Niederschläge Wind Luftdruck Luftfeuchtigkeit
00:00 +5°C° 0 mm 4 m/S 757 mmHg 86%
01:00 +5°C° 0 mm 4 m/S 757 mmHg 86%
02:00 +5°C° 0 mm 4 m/S 756 mmHg 85%
03:00 +5°C° 0 mm 4 m/S 756 mmHg 84%
04:00 +5°C° 0 mm 4 m/S 755 mmHg 83%
05:00 +5°C° 0 mm 4 m/S 755 mmHg 83%
06:00 +5°C° 0 mm 4 m/S 755 mmHg 82%
07:00 +5°C° 0 mm 4 m/S 754 mmHg 82%
08:00 +6°C° 0 mm 4 m/S 754 mmHg 80%
09:00 +7°C° 0 mm 4 m/S 754 mmHg 79%
10:00 +8°C° 0 mm 4 m/S 753 mmHg 77%
11:00 +10°C° 0 mm 4 m/S 753 mmHg 78%
12:00 +11°C° 0 mm 4 m/S 752 mmHg 78%
13:00 +12°C° 0 mm 4 m/S 752 mmHg 78%
14:00 +12°C° 0 mm 4 m/S 751 mmHg 81%
15:00 +11°C° 0 mm 4 m/S 751 mmHg 84%
16:00 +11°C° 0 mm 4 m/S 750 mmHg 86%
17:00 +11°C° 0.4 mm 4 m/S 750 mmHg 89%
18:00 +11°C° 0.4 mm 4 m/S 750 mmHg 92%
19:00 +11°C° 0.4 mm 4 m/S 750 mmHg 95%
20:00 +11°C° 0.4 mm 4 m/S 749 mmHg 95%
21:00 +11°C° 0.4 mm 4 m/S 749 mmHg 95%
22:00 +11°C° 0.4 mm 4 m/S 749 mmHg 95%
23:00 +11°C° 0.3 mm 4 m/S 749 mmHg 95%

übermorgen, 2 November, Montag

Zeit Temperatur Niederschläge Wind Luftdruck Luftfeuchtigkeit
00:00 +11°C° 0.3 mm 4 m/S 748 mmHg 95%
01:00 +11°C° 0.3 mm 4 m/S 748 mmHg 95%
02:00 +11°C° 0.2 mm 4 m/S 748 mmHg 94%
03:00 +12°C° 0.2 mm 4 m/S 748 mmHg 94%
04:00 +12°C° 0.2 mm 4 m/S 748 mmHg 93%
05:00 +12°C° 0 mm 4 m/S 749 mmHg 93%
06:00 +12°C° 0 mm 4 m/S 749 mmHg 93%
07:00 +11°C° 0 mm 4 m/S 749 mmHg 93%
08:00 +12°C° 0 mm 3 m/S 750 mmHg 91%
09:00 +12°C° 0 mm 3 m/S 750 mmHg 89%
10:00 +12°C° 0 mm 3 m/S 750 mmHg 86%
11:00 +12°C° 0.1 mm 3 m/S 750 mmHg 88%
12:00 +12°C° 0.1 mm 3 m/S 750 mmHg 90%
13:00 +12°C° 0.1 mm 3 m/S 750 mmHg 92%
14:00 +12°C° 0 mm 3 m/S 750 mmHg 93%
15:00 +13°C° 0 mm 3 m/S 750 mmHg 94%
16:00 +13°C° 0 mm 3 m/S 750 mmHg 95%
17:00 +14°C° 0 mm 3 m/S 750 mmHg 95%
18:00 +14°C° 0 mm 3 m/S 750 mmHg 95%
19:00 +14°C° 0 mm 4 m/S 751 mmHg 95%
20:00 +15°C° 0 mm 4 m/S 751 mmHg 94%
21:00 +15°C° 0 mm 4 m/S 751 mmHg 93%
22:00 +15°C° 0 mm 4 m/S 751 mmHg 92%
23:00 +15°C° 0 mm 4 m/S 751 mmHg 91%

3 November, Dienstag

Zeit Temperatur Niederschläge Wind Luftdruck Luftfeuchtigkeit
00:00 +15°C° 0 mm 4 m/S 751 mmHg 91%
01:00 +14°C° 0 mm 4 m/S 751 mmHg 91%
02:00 +14°C° 0 mm 4 m/S 751 mmHg 91%
03:00 +14°C° 0 mm 4 m/S 752 mmHg 91%
04:00 +14°C° 0 mm 4 m/S 752 mmHg 92%
05:00 +14°C° 0 mm 4 m/S 753 mmHg 90%
06:00 +14°C° 0 mm 4 m/S 753 mmHg 88%
07:00 +14°C° 0 mm 4 m/S 754 mmHg 86%
08:00 +13°C° 0 mm 4 m/S 754 mmHg 80%
09:00 +13°C° 0 mm 5 m/S 755 mmHg 74%
10:00 +12°C° 0 mm 5 m/S 756 mmHg 67%
11:00 +13°C° 0 mm 5 m/S 756 mmHg 64%
12:00 +13°C° 0 mm 6 m/S 756 mmHg 60%
13:00 +13°C° 0 mm 6 m/S 757 mmHg 56%
14:00 +12°C° 0 mm 5 m/S 757 mmHg 60%
15:00 +11°C° 0 mm 4 m/S 757 mmHg 64%
16:00 +11°C° 0 mm 4 m/S 758 mmHg 67%
17:00 +10°C° 0 mm 4 m/S 758 mmHg 70%
18:00 +9°C° 0 mm 3 m/S 758 mmHg 72%
19:00 +8°C° 0 mm 3 m/S 759 mmHg 75%
20:00 +8°C° 0 mm 3 m/S 759 mmHg 77%
21:00 +8°C° 0 mm 3 m/S 759 mmHg 78%
22:00 +7°C° 0 mm 3 m/S 760 mmHg 79%
23:00 +7°C° 0 mm 3 m/S 760 mmHg 80%

4 November, Mittwoch

Zeit Temperatur Niederschläge Wind Luftdruck Luftfeuchtigkeit
00:00 +7°C° 0 mm 3 m/S 760 mmHg 80%
01:00 +7°C° 0 mm 3 m/S 760 mmHg 80%
02:00 +7°C° 0 mm 3 m/S 760 mmHg 82%
03:00 +5°C° 0 mm 3 m/S 760 mmHg 84%
04:00 +5°C° 0 mm 3 m/S 760 mmHg 85%
05:00 +5°C° 0 mm 3 m/S 760 mmHg 87%
06:00 +4°C° 0 mm 3 m/S 761 mmHg 88%
07:00 +4°C° 0 mm 3 m/S 761 mmHg 90%
08:00 +5°C° 0 mm 3 m/S 761 mmHg 84%
09:00 +7°C° 0 mm 3 m/S 761 mmHg 78%
10:00 +7°C° 0 mm 4 m/S 762 mmHg 72%
11:00 +8°C° 0 mm 4 m/S 762 mmHg 68%
12:00 +8°C° 0 mm 4 m/S 762 mmHg 65%
13:00 +10°C° 0 mm 4 m/S 762 mmHg 61%
14:00 +8°C° 0 mm 4 m/S 762 mmHg 65%
15:00 +8°C° 0 mm 3 m/S 763 mmHg 68%
16:00 +8°C° 0 mm 3 m/S 763 mmHg 71%
17:00 +7°C° 0 mm 2 m/S 763 mmHg 73%
18:00 +7°C° 0 mm 2 m/S 764 mmHg 74%
19:00 +7°C° 0 mm 2 m/S 764 mmHg 76%
20:00 +6°C° 0 mm 2 m/S 764 mmHg 78%
21:00 +6°C° 0 mm 2 m/S 765 mmHg 81%
22:00 +5°C° 0 mm 2 m/S 765 mmHg 83%
23:00 +5°C° 0 mm 2 m/S 765 mmHg 85%

5 November, Donnerstag

Zeit Temperatur Niederschläge Wind Luftdruck Luftfeuchtigkeit
00:00 +5°C° 0 mm 2 m/S 765 mmHg 86%
01:00 +4°C° 0 mm 2 m/S 766 mmHg 87%
02:00 +4°C° 0 mm 2 m/S 766 mmHg 89%
03:00 +4°C° 0 mm 2 m/S 766 mmHg 90%
04:00 +4°C° 0 mm 2 m/S 766 mmHg 92%
05:00 +3°C° 0 mm 2 m/S 766 mmHg 92%
06:00 +3°C° 0 mm 2 m/S 766 mmHg 93%
07:00 +3°C° 0 mm 2 m/S 767 mmHg 94%
08:00 +4°C° 0 mm 2 m/S 767 mmHg 90%
09:00 +4°C° 0 mm 3 m/S 767 mmHg 87%
10:00 +5°C° 0 mm 3 m/S 767 mmHg 84%
11:00 +7°C° 0 mm 3 m/S 767 mmHg 81%
12:00 +8°C° 0 mm 3 m/S 767 mmHg 77%
13:00 +9°C° 0 mm 3 m/S 768 mmHg 74%
14:00 +8°C° 0 mm 3 m/S 767 mmHg 77%
15:00 +8°C° 0 mm 3 m/S 767 mmHg 80%
16:00 +7°C° 0 mm 3 m/S 767 mmHg 83%
17:00 +7°C° 0 mm 3 m/S 767 mmHg 84%
18:00 +7°C° 0 mm 3 m/S 767 mmHg 86%
19:00 +5°C° 0 mm 3 m/S 768 mmHg 87%
20:00 +5°C° 0 mm 3 m/S 768 mmHg 89%
21:00 +5°C° 0 mm 3 m/S 768 mmHg 90%
22:00 +4°C° 0 mm 3 m/S 768 mmHg 92%
23:00 +4°C° 0 mm 3 m/S 768 mmHg 92%
Mehr zeigen

Wir brauchen deine Erlaubnis

Meteoprog und unser Service Anbieter werden persönliche Daten aufbewahren, so wie Cookies, Geräte Bezeichnung oder ähnliche Technologien von deinem Gerät und Prozess, so wie Persönliche Daten Inhalte und Werbungen, genauso wie social Media und den Verkehr zu analysieren.

  • Aufbewahrung und/oder Zugang zu deiner Geräte Informationen.

    Cookies, Geräte Bezeichnung oder andere Informationen, können aufbewahrt oder Zugang zu deinem Gerät erhalten, für den Grund, der oben angegeben wird.

  • Personalisierte Werbung und Inhalte, Messungen, Einblick in das Publikum und Produkt Entwicklung.

    Werbungen und Inhalte können personalisiert werden, basierend auf ein Profil. Mehr Daten können besser personalisierte Werbungen und Inhalte hinzufügen. Werbung und Inhalte können gezeigt und gemessen werden. Einblicke über das Publikum, welche die Werbung gesehen haben und den Inhalt, können abgeleitet werden. So wie Daten können genutzt werden, um es zu verbessern oder die Benutzer Erfahrung zu verbessern das System und die Software.

Wenn du “Ich stimme zu” klickst, erlaubst du uns, die Cookies zu benutzen die Geräte Bezeichnung, den Web oder ähnliche Technologien zu benutzen. Deine Settings, können in deinem Gerät bei deinem Browser geändert werden.

Für den bestimmten Zweck, berechtigten Interessen beruhen darauf, mehr als auf den Inhalt. Du kannst mehr darüber in unseren Privaten und Cookie Politik lesen.